Air Resources Laboratory banner image
Air Resources Laboratory web site National Oceanic and Atmospheric Administration (NOAA)

vt roundup


Office: BTV

ASUS41 KBTV 191510
RWRBTV
VERMONT REGIONAL WEATHER ROUNDUP
NATIONAL WEATHER SERVICE BURLINGTON VT
1000 AM EST MON FEB 19 2018

NOTE: "FAIR" INDICATES FEW OR NO CLOUDS BELOW 12,000 FEET WITH NO
SIGNIFICANT WEATHER AND/OR OBSTRUCTIONS TO VISIBILITY.

* THESE REPORTS ARE NOT UNDER NWS QUALITY CONTROL AND/OR DO NOT
  REPORT WEATHER SUCH AS PRECIPITATION AND FOG.

VTZ001>019-191600-
_____VERMONT_____


CITY           SKY/WX    TMP DP  RH WIND       PRES   REMARKS
BURLINGTON     PTSUNNY   37  21  52 S21G37    30.31F WCI  26
MONTPELIER     PTSUNNY   32  21  64 S13       30.38F WCI  22
MORRISVILLE    FAIR      30  21  69 CALM      30.34F
ST. JOHNSBURY*   N/A     28  20  71 MISG      30.38F
LYNDONVILLE*   FAIR      29  20  69 SE15      30.38F WCI  17
MIDDLEBURY*    FAIR      36  21  55 S13G21    30.37F WCI  28
RUTLAND*       FAIR      40  22  48 S15G22    30.36F WCI  32
SPRINGFIELD    FAIR      32  22  66 SE9       30.44F WCI  24
HIGHGATE*      FAIR      37  22  54 S15G31    30.28F WCI  28
NEWPORT*       FAIR      32  20  62 S14G23    30.31F WCI  22
BENNINGTON     FAIR      39  23  52 VRB7G17   30.41F

_____LAKE CHAMPLAIN_____


CITY           SKY/WX    TMP DP  RH WIND       PRES   REMARKS
BURTON ISLAND*   N/A     34  27  75 S23G32      N/A  WCI  22
COLCHESTER RF*   N/A     34  25  69 S36         N/A  WCI  19

$$

NYZ007-026>031-035-052-083-087-191600-
_____NORTHERN NEW YORK_____


CITY           SKY/WX    TMP DP  RH WIND       PRES   REMARKS
PLATTSBURGH    FAIR      36  21  54 S15       30.28F WCI  27
SARANAC LAKE   FAIR      34  23  64 MISG      30.19F
MASSENA        FAIR      39  26  59 S5        30.21F
OGDENSBURG*    FAIR      41  27  55 S15       30.19F
POTSDAM*       SUNNY     43  25  49 SW17G26   30.18F
WATERTOWN      FAIR      42  28  57 S12G29    30.19R
FT DRUM        SUNNY     39  27  61 S21G26    30.18F WCI  29
ALBANY         FAIR      39  26  59 S16G23    30.41F WCI  30
GLENS FALLS    FAIR      36  24  62 S13G23    30.38F WCI  27

$$
NHZ002-005-011-191600-
_____NEW HAMPSHIRE_____


CITY           SKY/WX    TMP DP  RH WIND       PRES   REMARKS
LEBANON        FAIR      34  23  64 S21G28    30.41F WCI  22
KEENE          FAIR      32  29  88 CALM      30.48F
MT WASHINGTON  MOSUNNY   18   5  57 SW39G56     N/A  WCI  -4
PLYMOUTH       FAIR      28  20  72 E3        30.47F
WHITEFIELD     FAIR      26  21  81 CALM      30.38F

$$

_____REGIONAL QUEBEC LOCATIONS_____


CITY           SKY/WX    TMP DP  RH WIND       PRES   REMARKS
MONTREAL       PTSUNNY   34  21  60 SE15      30.23F WCI  24
QUEBEC CITY    PTSUNNY   27  18  69 NE7       30.29F WCI  19
SHERBROOKE     MOSUNNY   37  18  44 S14G21    30.28F WCI  29

_____REGIONAL ONTARIO LOCATIONS_____


CITY           SKY/WX    TMP DP  RH WIND       PRES   REMARKS
OTTAWA         PTSUNNY   34  21  60 S9        30.16F WCI  26

______KEY______
VSB  - VISIBILITY IN MILES
WCI  - WIND CHILL INDEX
HX   - HEAT INDEX
$$
NNNN


ASUS41 KBTV 191530
RWRBTV
VERMONT REGIONAL WEATHER ROUNDUP
NATIONAL WEATHER SERVICE BURLINGTON VT
1000 AM EST MON FEB 19 2018

NOTE: "FAIR" INDICATES FEW OR NO CLOUDS BELOW 12,000 FEET WITH NO
SIGNIFICANT WEATHER AND/OR OBSTRUCTIONS TO VISIBILITY.

* THESE REPORTS ARE NOT UNDER NWS QUALITY CONTROL AND/OR DO NOT
  REPORT WEATHER SUCH AS PRECIPITATION AND FOG.

VTZ001>019-191600-
_____VERMONT_____


CITY           SKY/WX    TMP DP  RH WIND       PRES   REMARKS
BURLINGTON     PTSUNNY   37  21  52 S21G37    30.31F WCI  26
MONTPELIER     PTSUNNY   32  21  64 S13       30.38F WCI  22
MORRISVILLE    FAIR      30  21  69 CALM      30.34F
ST. JOHNSBURY*   N/A     28  20  71 MISG      30.38F
LYNDONVILLE*   FAIR      30  20  67 SE17      30.36F WCI  18
MIDDLEBURY*    FAIR      37  22  55 S17G25    30.35F WCI  27
RUTLAND*       FAIR      40  22  48 S15G22    30.36F WCI  32
SPRINGFIELD    FAIR      32  22  66 SE9       30.44F WCI  24
HIGHGATE*      FAIR      38  22  54 S18G26    30.28F WCI  28
NEWPORT*       FAIR      33  21  60 S9        30.31F WCI  25
BENNINGTON     FAIR      39  23  52 VRB7G17   30.41F
ISLAND POND*     N/A     34 N/A N/A MISG        N/A
GALLUP MILLS*    N/A     32 N/A N/A MISG        N/A
UNION VILLAGE*   N/A     36 N/A N/A MISG        N/A
MT. MANSFIELD*   N/A     28 N/A N/A S44         N/A  WCI  10

_____LAKE CHAMPLAIN_____


CITY           SKY/WX    TMP DP  RH WIND       PRES   REMARKS
BURTON ISLAND*   N/A     34  27  75 S23G32      N/A  WCI  22
COLCHESTER RF*   N/A     34  25  69 S36         N/A  WCI  19

$$

NYZ007-026>031-035-052-083-087-191600-
_____NORTHERN NEW YORK_____


CITY           SKY/WX    TMP DP  RH WIND       PRES   REMARKS
PLATTSBURGH    FAIR      36  21  54 S15       30.28F WCI  27
SARANAC LAKE   FAIR      34  23  64 MISG      30.19F
MASSENA        FAIR      39  26  59 S5        30.21F
OGDENSBURG*    FAIR      44  27  52 S15G21    30.19S
POTSDAM*       SUNNY     43  25  49 SW17G26   30.18F
STARK FALLS*     N/A     37 N/A N/A S20         N/A  WCI  27
WATERTOWN      FAIR      42  28  57 S12G29    30.19R
FT DRUM        SUNNY     39  27  61 S21G26    30.18F WCI  29
ALBANY         FAIR      39  26  59 S16G23    30.41F WCI  30
GLENS FALLS    FAIR      36  24  62 S13G23    30.38F WCI  27

$$
NHZ002-005-011-191600-
_____NEW HAMPSHIRE_____


CITY           SKY/WX    TMP DP  RH WIND       PRES   REMARKS
LEBANON        FAIR      34  23  64 S21G28    30.41F WCI  22
KEENE          FAIR      32  29  88 CALM      30.48F
MT WASHINGTON  MOSUNNY   18   5  57 SW39G56     N/A  WCI  -4
PLYMOUTH       FAIR      31  20  64 E3        30.45F
WHITEFIELD     FAIR      26  21  81 CALM      30.38F

$$

_____REGIONAL QUEBEC LOCATIONS_____


CITY           SKY/WX    TMP DP  RH WIND       PRES   REMARKS
MONTREAL       PTSUNNY   34  21  60 SE15      30.23F WCI  24
QUEBEC CITY    PTSUNNY   27  18  69 NE7       30.29F WCI  19
SHERBROOKE     MOSUNNY   37  18  44 S14G21    30.28F WCI  29

_____REGIONAL ONTARIO LOCATIONS_____


CITY           SKY/WX    TMP DP  RH WIND       PRES   REMARKS
OTTAWA         PTSUNNY   34  21  60 S9        30.16F WCI  26

______KEY______
VSB  - VISIBILITY IN MILES
WCI  - WIND CHILL INDEX
HX   - HEAT INDEX
$$
NNNN




Office: BOX ASUS41 KBOX 191510 RWRBOX REGIONAL WEATHER ROUNDUP NATIONAL WEATHER SERVICE TAUNTON MA 1000 AM EST MON FEB 19 2018 NOTE: "FAIR" INDICATES FEW OR NO CLOUDS BELOW 12,000 FEET WITH NO SIGNIFICANT WEATHER AND/OR OBSTRUCTIONS TO VISIBILITY. MAZALL-191600- EASTERN MASSACHUSETTS CITY SKY/WX TMP DP RH WIND PRES REMARKS BOSTON FAIR 40 29 64 S13 30.52F BEVERLY FAIR 40 27 59 S13 30.52F LAWRENCE FAIR 42 25 50 S9G17 30.53F BEDFORD FAIR 39 28 64 SW10 30.51S BLUE HILL N/A 39 29 67 S21G30 30.48F WCI 29 NORWOOD FAIR 43 31 62 S9 30.52F MARSHFIELD FAIR 45 32 61 S9G17 30.53F PLYMOUTH FAIR 44 33 65 S9G20 30.55F TAUNTON FAIR 44 32 62 S10 30.54F NEW BEDFORD FAIR 44 34 67 S14G21 30.56R $$ MAZALL-191600- CAPE COD AND THE ISLANDS CITY SKY/WX TMP DP RH WIND PRES REMARKS FALMOUTH FAIR 45 32 61 S17 30.57 HYANNIS FAIR 43 32 65 SW15G21 30.56F CHATHAM FAIR 44 37 76 S8G18 30.59F PROVINCETOWN FAIR 42 36 79 S13G20 30.57F NANTUCKET FAIR 43 37 79 S13 30.58F MARTHAS VNYRD FAIR 45 35 68 S13 30.57F $$ MAZALL-191600- CENTRAL AND WESTERN MASSACHUSETTS CITY SKY/WX TMP DP RH WIND PRES REMARKS WORCESTER FAIR 36 28 73 SW12G22 30.47F WCI 28 FITCHBURG FAIR 41 29 62 S7 30.52R ORANGE CLOUDY 33 26 75 CALM 30.50S SPRINGFIELD PTSUNNY 36 26 68 S12 30.49F WCI 28 WESTFIELD FAIR 36 29 75 S13 30.49F WCI 27 NORTH ADAMS FAIR 37 24 59 VRB3 30.44F PITTSFIELD FAIR 38 26 62 VRB6 30.41F $$ RIZALL-191600- RHODE ISLAND CITY SKY/WX TMP DP RH WIND PRES REMARKS PROVIDENCE FAIR 42 33 70 S14 30.56S NEWPORT FAIR 43 35 73 S10 30.56R BLOCK ISLAND FAIR 44 36 73 S13 30.55S SMITHFIELD FAIR 41 30 65 S8 30.52F WESTERLY FAIR 44 37 76 S9 30.56S $$ CTZALL-191600- CONNECTICUT CITY SKY/WX TMP DP RH WIND PRES REMARKS BRADLEY INTL FAIR 37 30 75 S8 30.51F WCI 31 HARTFORD FAIR 42 31 64 S10G17 30.51F BRIDGEPORT FAIR 40 34 79 CALM 30.54F DANBURY FAIR N/A N/A N/A S9G18 30.50F GROTON FAIR 43 36 76 S7 30.54F NEW HAVEN FAIR 41 33 73 S7 30.53F CHESTER FAIR 45 32 61 S14 30.51F MERIDEN FAIR 40 31 70 S10 30.52F WILLIMANTIC FAIR 40 32 73 S6 30.53F OXFORD FAIR 39 31 72 SW14G20 30.50F WCI 31 $$ MEZ002-015-021-024-NHZ003-005-008-011-012-014-VTZ005-008-191600- NORTHERN NEW ENGLAND CITY SKY/WX TMP DP RH WIND PRES REMARKS PORTLAND ME CLOUDY 38 27 64 SW12G22 30.54R WCI 30 BANGOR ME FAIR 33 25 72 S7 30.53R WCI 27 CONCORD NH FAIR 33 25 72 S6 30.49S WCI 28 MANCHESTER NH PTSUNNY 32 22 66 CALM 30.51R NASHUA NH FAIR 36 25 64 VRB3 30.53R PORTSMOUTH NH PTSUNNY 39 23 52 SW8 30.52R JAFFREY NH PTSUNNY 36 27 69 VRB5 30.45S KEENE NH FAIR 32 29 88 CALM 30.48F BURLINGTON VT PTSUNNY 37 21 52 S21G37 30.31F WCI 26 MT. WASHINGTON MOSUNNY 18 5 57 SW39G56 N/A WCI -4 $$ NYZ052-076-191600- EASTERN NEW YORK CITY SKY/WX TMP DP RH WIND PRES REMARKS ALBANY FAIR 39 26 59 S16G23 30.41F WCI 30 NEW YORK CITY FAIR 45 33 63 S14G20 30.50F $$ ANZALL-191600- MARINE OBSERVATIONS STATION/POSITION TIME TEMP WIND PRES VSBY WAVE AIR SEA DIR/SP/G HT/PER (UTC) (F) (DEG/KT/KT) (MB) (MI) (FT/S) BOSTON BUOY 1450 39 39 180/ 12/ 14 1033.8F 4/10 BUZZARDS BAY 1400 39 160/ 10/ 10 1035.4F NANTUCKET SOUND 1350 40 38 170/ 12/ 14 1035.6 1/ 3 MASS BAY-STELLWA 1404 37 39 1033.1F 6/ 8 ISLE OF SHOALS 1500 38 220/ 17/ 18 1033.5R S OF BLOCK IS NOT AVBL $$ ......................KEY......................... SKY/WX - SKY CONDITION/PRESENT WEATHER TMP - TEMPERATURE IN FAHRENHEIT DWPT - DEWPOINT IN FAHRENHEIT RH - RELATIVE HUMIDITY IN PERCENT WIND - DIRECTION AND SPEED IN MPH PRES - MEAN SEA LEVEL PRESSURE IN INCHES OF HG WCI - WIND CHILL INDEX VSB - VISIBILITY IN MILES HX - HEAT INDEX TC - TEMPERATURE IN CELSIUS VRB - VARIABLE WIND DIRECTION N/A - NOT AVAILABLE
Office: GYX ASUS41 KGYX 191505 RWRGYX WEATHER ROUNDUP FOR MAINE AND NEW HAMPSHIRE NATIONAL WEATHER SERVICE GRAY ME 1000 AM EST MON FEB 19 2018 MEZ002-005-006-010-012-015-018-020-021-024-026-027-029-191600- MAINE CITY SKY/WX TMP DP RH WIND PRES REMARKS PORTLAND CLOUDY 38 27 64 SW12G22 30.54R SANFORD FAIR 36 22 56 SW8 30.53R BAR HARBOR CLOUDY 35 26 69 CALM 30.54F WISCASSET FAIR 39 30 70 S8 30.55R ROCKLAND FAIR 40 29 64 SW12G20 30.54R FRYEBURG FAIR 36 22 56 S6G20 30.46F LEWISTONAUBURN FAIR 36 25 64 S10 30.50F AUGUSTA FAIR 34 24 67 S5 30.51R WATERVILLE FAIR 33 22 63 VRB3 30.46S BANGOR FAIR 33 25 72 S7 30.53R GREENVILLE N/A 30 21 69 S9G20 30.36F MILLINOCKET FAIR 30 18 60 S8G18 30.49F HOULTON FAIR 30 17 58 VRB6 30.46F PRESQUE ISLE FAIR 32 17 54 S14G20 30.40F FRENCHVILLE FAIR 21 14 74 SE12 30.32F WCI 9 CARIBOU FAIR 26 15 63 S10 30.38F WCI 16 $$ NHZ002-005-008-009-011-012-014-191600- NEW HAMPSHIRE CITY SKY/WX TMP DP RH WIND PRES REMARKS PORTSMOUTH PTSUNNY 39 23 52 SW8 30.52R ROCHESTER FAIR 36 23 59 VRB5 30.52R NASHUA FAIR 36 25 64 VRB3 30.53R MANCHESTER PTSUNNY 32 22 66 CALM 30.51R CONCORD FAIR 33 25 72 S6 30.49S LACONIA FAIR 31 22 69 CALM 30.48F PLYMOUTH FAIR 28 20 72 E3 30.47F BERLIN FAIR 19 14 81 CALM 30.38F WHITEFIELD FAIR 26 21 81 CALM 30.38F JAFFREY PTSUNNY 36 27 69 VRB5 30.45S KEENE FAIR 32 29 88 CALM 30.48F LEBANON FAIR 34 23 64 S21G28 30.41F MT WASHINGTON MOSUNNY 18 5 57 SW39G56 N/A WCI -4 $$ VTZ005-007-008-191600- VERMONT CITY SKY/WX TMP DP RH WIND PRES REMARKS ST JOHNSBURY N/A 28 20 71 MISG 30.38F MONTPELIER PTSUNNY 32 21 64 S13 30.38F BURLINGTON PTSUNNY 37 21 52 S21G37 30.31F $$ MAZ007-012-024-CTZ003-RIZ002-NYZ038-NYZ072-191600- SOUTHERN NEW ENGLAND AND NY CITY SKY/WX TMP DP RH WIND PRES REMARKS BOSTON FAIR 40 29 64 S13 30.52F WORCESTER FAIR 36 28 73 SW12G22 30.47F NANTUCKET FAIR 43 37 79 S13 30.58F PROVIDENCE FAIR 42 33 70 S14 30.56S HARTFORD FAIR 37 30 75 S8 30.51F ALBANY FAIR 39 26 59 S16G23 30.41F NEW YORK CITY FAIR 45 33 63 S14G20 30.50F $$ ANZ081-ANZ082-ANZ150-NHZ014-MEZ023>029-191600- COASTAL MARINE OBSERVATIONS STATION/POSITION TIME TEMP WIND PRES WAVE AIR SEA DIR/SP/G HT/PER (UTC) (F) (DEG/KT/KT) (MB) (FT/S) MOUNT DESERT ROC 1500 41 190/ 23/ 25 1034.1F MATINICUS ROCK 1400 40 210/ 21/ 23 1033.5F ISLE OF SHOALS 1400 36 200/ 17/ 18 1033.2F JEFFREYS LEDGE 1436 42 N/A 5/10 GEORGES BANK BUO 1350 40 58 1031.6 18/11 $$ .............KEY.............. WCI - WIND CHILL TC - TEMPERATURE IN CELSIUS VSB - VISIBILITY IN MILES HX - HEAT INDEX FAIR- INDICATES FEW OR NO CLOUDS BELOW 12,000 FT, WITH NO SIGNIFICANT WEATHER AND/OR OBSTRUCTIONS TO VISIBILITY. ASUS41 KGYX 191510 RWRGYX WEATHER ROUNDUP FOR MAINE AND NEW HAMPSHIRE NATIONAL WEATHER SERVICE GRAY ME 1000 AM EST MON FEB 19 2018 MEZ002-005-006-010-012-015-018-020-021-024-026-027-029-191600- MAINE CITY SKY/WX TMP DP RH WIND PRES REMARKS PORTLAND CLOUDY 38 27 64 SW12G22 30.54R SANFORD FAIR 36 22 56 SW8 30.53R BAR HARBOR CLOUDY 35 26 69 CALM 30.54F WISCASSET FAIR 39 30 70 S8 30.55R ROCKLAND FAIR 40 29 64 SW12G20 30.54R FRYEBURG FAIR 36 22 56 S6G20 30.46F LEWISTONAUBURN FAIR 36 25 64 S10 30.50F AUGUSTA FAIR 34 24 67 S5 30.51R WATERVILLE FAIR 33 22 63 VRB3 30.46S BANGOR FAIR 33 25 72 S7 30.53R GREENVILLE N/A 30 21 69 S9G20 30.36F MILLINOCKET FAIR 30 18 60 S8G18 30.49F HOULTON FAIR 30 17 58 VRB6 30.46F PRESQUE ISLE FAIR 32 17 54 S14G20 30.40F FRENCHVILLE FAIR 21 14 74 SE12 30.32F WCI 9 CARIBOU FAIR 26 15 63 S10 30.38F WCI 16 $$ NHZ002-005-008-009-011-012-014-191600- NEW HAMPSHIRE CITY SKY/WX TMP DP RH WIND PRES REMARKS PORTSMOUTH PTSUNNY 39 23 52 SW8 30.52R ROCHESTER FAIR 36 23 59 VRB5 30.52R NASHUA FAIR 36 25 64 VRB3 30.53R MANCHESTER PTSUNNY 32 22 66 CALM 30.51R CONCORD FAIR 33 25 72 S6 30.49S LACONIA FAIR 31 22 69 CALM 30.48F PLYMOUTH FAIR 28 20 72 E3 30.47F BERLIN FAIR 19 14 81 CALM 30.38F WHITEFIELD FAIR 26 21 81 CALM 30.38F JAFFREY PTSUNNY 36 27 69 VRB5 30.45S KEENE FAIR 32 29 88 CALM 30.48F LEBANON FAIR 34 23 64 S21G28 30.41F MT WASHINGTON MOSUNNY 18 5 57 SW39G56 N/A WCI -4 $$ VTZ005-007-008-191600- VERMONT CITY SKY/WX TMP DP RH WIND PRES REMARKS ST JOHNSBURY N/A 28 20 71 MISG 30.38F MONTPELIER PTSUNNY 32 21 64 S13 30.38F BURLINGTON PTSUNNY 37 21 52 S21G37 30.31F $$ MAZ007-012-024-CTZ003-RIZ002-NYZ038-NYZ072-191600- SOUTHERN NEW ENGLAND AND NY CITY SKY/WX TMP DP RH WIND PRES REMARKS BOSTON FAIR 40 29 64 S13 30.52F WORCESTER FAIR 36 28 73 SW12G22 30.47F NANTUCKET FAIR 43 37 79 S13 30.58F PROVIDENCE FAIR 42 33 70 S14 30.56S HARTFORD FAIR 37 30 75 S8 30.51F ALBANY FAIR 39 26 59 S16G23 30.41F NEW YORK CITY FAIR 45 33 63 S14G20 30.50F $$ ANZ081-ANZ082-ANZ150-NHZ014-MEZ023>029-191600- COASTAL MARINE OBSERVATIONS STATION/POSITION TIME TEMP WIND PRES WAVE AIR SEA DIR/SP/G HT/PER (UTC) (F) (DEG/KT/KT) (MB) (FT/S) MOUNT DESERT ROC 1500 41 190/ 23/ 25 1034.1F MATINICUS ROCK 1500 40 200/ 25/ 27 1033.5S ISLE OF SHOALS 1500 38 220/ 17/ 18 1033.5R JEFFREYS LEDGE 1436 42 N/A 5/10 GEORGES BANK BUO 1350 40 58 1031.6 18/11 $$ .............KEY.............. WCI - WIND CHILL TC - TEMPERATURE IN CELSIUS VSB - VISIBILITY IN MILES HX - HEAT INDEX FAIR- INDICATES FEW OR NO CLOUDS BELOW 12,000 FT, WITH NO SIGNIFICANT WEATHER AND/OR OBSTRUCTIONS TO VISIBILITY.